Retour au catalogue

STARLINK-30561

ActifCommunicationsVLEO
NORAD 58032·PAYLOAD·🇺🇸 United States

Lancé Oct 9, 2023 depuis Vandenberg Space Force Base

Loading…

Prochains Passages (prochaines 24 heures)

TLE

FraisSource: CelesTrak SupGP

Époque: Sep 15, 2026, 02:54 UTC

1 58032C 23156E   26258.12131944 -.00003824  00000+0 -11293-3 0  2588
2 58032  53.1569 276.6219 0001290  92.6029 230.9236 15.34401721    16

Suivez STARLINK-30561 en temps réel avec AllMySat

Download on the App Store